www.pogodaiklimat.ru

Погода и климат >> Архив погоды >> Мексика >> Toluca


ПОГОДА в Toluca

  • Прогноз погоды в Toluca
  • Монитор погоды в Toluca
  • Климат города

АРХИВ ПОГОДЫ в Toluca

Время (UTC), дата Ветер
(напр.,м/с)
 
Видим.   Явления Облачность Т
(С)
Тd
(С)
f
(%)
Тe
(С)
Тes
(С)
Комфортность P
(гПа)
Po
(гПа)
Тmin
(С)
Tmax
(С)
R
(мм)
R24
(мм)
S
(см)
03 10.12 ЮВ 1 20 км мгла {туман} 8/8 600 м
[Cb calv]
+13.5 +2.1 46 +14 +14 1012.4 738.1 +2.0 +19.1
09 10.12 штиль 0 10 км ясно +0.3 -2.3 83 -1 -1 1020.1 739.7
12 10.12 штиль 0 15 км ясно -1.1 -2.7 89 -2 -2 1024.8 740.0 -2.2 +19.1
15 10.12 З 2 25 км мгла {туман} ясно +4.8 -3.7 54 +3 +6 1029.6 741.6
18 10.12 ЮВ 1 20 км мгла {туман} ясно +16.8 -3.6 25 +18 +32 опасность
простуды
1025.2 740.8 -2.5 +17.4
21 10.12 СЗ 2 20 км мгла {туман} 1/1 800 м
[Cu hum]
+20.2 -7.4 15 +20 +27 1017.9 739.3
03 11.12 З 2
{3}
10 км ясно +5.2 -14.5 23 +4 +4 1014.3 741.3
06 11.12 В 1 10 км ясно +1.0 -7.8 52 -0 -0 1018.2 741.7 -2.5 +21.5
09 11.12 В 1 10 км ясно -0.9 -7.5 61 -3 -3 1022.9 741.0
12 11.12 Ю 1 15 км ясно -3.3 -8.7 66 -5 -5 1027.5 740.3 -4.4 +21.5
15 11.12 ЮЗ 1 35 км ясно +4.6 -9.9 34 +4 +8 1031.2 741.7
18 11.12 В 2 35 км ясно +19.6 -12.1 11 +20 +31 1025.3 740.5 -5.0 +20.5
21 11.12 З 2
{4}
20 км мгла {туман} 5/0
[Cs]
+22.6 -11.8 9 +20 +27 1015.6 738.1
00 12.12 СЗ 1 25 км мгла {туман} 4/0
[Cs]
+18.3 -6.9 17 +19 +19 1008.9 737.8 -5.0 +23.8
03 12.12 З 2 10 км ясно +7.8 -4.3 42 +6 +6 1009.3 739.9
06 12.12 Ю 1 10 км ясно +3.2 -5.9 51 +2 +2 1012.4 739.8 -5.0 +23.8
15 12.12 С 1 35 км ясно +8.4 -5.8 36 +8 +12 1027.8 740.7
18 12.12 СВ 1 35 км ясно +20.9 -14.9 8 +21 +34 комфорт 1022.0 739.5 -3.3 +22.0
21 12.12 С 1 20 км мгла {туман} ясно +23.8 -15.0 6 +21 +29 комфорт 1012.4 737.1
00 13.12 С 1 20 км мгла {туман} ясно +17.5 -14.1 10 +19 +19 1007.1 737.4 -3.3 +24.9
03 13.12 Ю 1 10 км ясно +7.5 -8.0 32 +7 +7 1006.6 738.3
06 13.12 штиль 0 10 км ясно +2.2 -8.0 47 +2 +2 1011.0 738.6 -3.3 +24.9
18 13.12 С 1 25 км {туман} 3/0
[Ci]
+19.6 -5.6 18 +20 +33 опасность
простуды
1023.1 739.6 -3.2 +20.1
00 14.12 СЗ 1 20 км мгла {туман} ясно +17.6 +1.3 33 +19 +19 1007.6 736.8 -3.2 +24.4
03 14.12 Ю 1 10 км ясно +7.6 -1.8 51 +7 +7 1006.9 738.1
06 14.12 штиль 0 10 км ясно +3.3 -2.5 66 +3 +3 1009.5 737.8 -3.2 +24.4
09 14.12 Ю 1 10 км ясно +1.0 -3.5 72 -1 -1 1014.0 736.8
12 14.12 штиль 0 15 км ясно -0.3 -3.7 78 -1 -1 1019.8 737.0 -1.5 +24.4
15 14.12 Ю 8 28 км мгла {туман} 8/0 1500 м
[As trans]
+5.8 -1.6 59 +1 +1 1024.0 738.3
18 14.12 В 1 25 км мгла {туман} 5/0 1500 м
[As trans]
+18.2 -0.4 28 +19 +29 1020.7 738.2 -2.0 +18.6
21 14.12 ЮЗ 2 10 км дым {туман} 6/1 800 м
[Cu hum Cs]
+22.0 -3.2 18 +21 +27 комфорт 1011.8 735.8
00 15.12 С 2 20 км дым {туман} 6/0
[Cs]
+17.3 +3.3 39 +18 +18 1006.9 736.0 -2.0 +23.0
03 15.12 З 1 10 км 4/0
[Cs]
+8.9 +1.8 61 +9 +9 1006.1 737.1
06 15.12 штиль 0 10 км ясно +3.6 -0.9 72 +3 +3 1009.7 737.6 -1.5 +23.0
09 15.12 В 1 10 км ясно +1.0 -1.8 82 -1 -1 1014.0 736.7
12 15.12 ЮВ 1 15 км ясно -0.7 -3.4 82 -3 -3 1019.2 736.6 -1.9 +23.0
15 15.12 Ю 1 30 км {туман} туман 3/0
[Ci]
+6.0 -0.6 63 +5 +9 1023.2 737.5
18 15.12 В 2 30 км {туман} туман 1/0
[Ci]
+20.3 -1.4 23 +21 +32 комфорт 1018.9 737.0 -2.0 +20.6
21 15.12 ЮВ 2 25 км мгла {туман} 6/0
[Cs]
+22.4 +2.0 26 +22 +29 комфорт 1010.4 735.2
00 16.12 Ю 1 25 км мгла {туман} 5/1 600 м
[Cu hum Ci]
+15.3 +4.9 50 +16 +16 1006.0 735.7 -2.0 +24.8
03 16.12 С 1 10 км ясно +9.3 +3.7 68 +9 +9 1005.3 736.9
06 16.12 З 1 10 км 1/1
[Sc diur, vesp]
+5.0 +1.9 80 +4 +4 1009.7 737.9 -2.0 +24.8
15 16.12 З 1 30 км {туман} туман 6/1 800 м
[Cu hum Ci]
+8.7 +4.4 74 +8 +11 1019.8 737.5
18 16.12 Ю 3 30 км мгла {туман} 8/1 800 м
[Cu hum Cs]
+19.4 +4.0 36 +20 +27 1017.1 738.0 +2.6 +20.0
21 16.12 ЮЗ 4
{9}
30 км 5/3 800 м
[Cu med, cong Cs]
+21.1 +0.9 26 +21 +24 комфорт 1011.3 737.0

 

Местоположение метеостанции Toluca (Мексика): широта 19.28 долгота -99.68 высота над уровнем моря 2720 м.

В архиве по умолчанию представлена погода в Toluca за последнюю неделю. Архивные данные за месяц целиком и за предыдущие месяцы, начиная с января 2011 года, Вы можете получить, выбрав интересующий диапазон дат из раскрывающегося списка и нажав кнопку "Ввод!".

Внимание! Время в таблицах - всемирное. Для получения местного времени необходимо прибавить поправку, которая в Toluca равна -6 ч.

Смотрите также архив погоды в соседних городах и на ближайших метеорологических станциях:

Погода в Institute of Geography (Мексика) (53 км)
Погода в Mexico City (Мексика) (54 км)
Погода в Cuernavaca (Мексика) (65 км)
Погода в Zacatepec (Мексика) (84 км)
Погода в Pachuca (Мексика) (136 км)
Погода в Tlaxcala (Мексика) (150 км)
Погода в Tlaxcala Airport (Мексика) (151 км)
Погода в Morelia (Мексика) (156 км)
Погода в Puebla (Мексика) (162 км)
Погода в Queretaro (Мексика) (163 км)

Пояснения к столбцам:

Ветер - указаны скорость ветра в м/с - средняя за 10 мин, порывы в срок и между сроками (в фигурных скобках) и направление, откуда дует ветер: С - северный, СВ - северо-восточный, В - восточный, ЮВ - юго-восточный, Ю - южный, ЮЗ - юго-западный, З - западный, СЗ - северо-западный.
Видимость - горизонтальная дальность видимости в метрах или километрах. При видимости от 1 до 10 км при отсутствии осадков обычно наблюдается дымка, при ухудшении видимости до 1 км и менее - туман. В сухую погоду видимость может ухудшаться дымом, пылью или мглою.
Явления - указаны атмосферные явления, наблюдавшиеся в срок или в последний час перед сроком; фигурными скобками обозначены явления, наблюдавшиеся между сроками (за 1-3 часа до срока); квадратными скобками обозначены град или гололедные отложения с указанием их диаметра в мм.
Облачность - указаны через наклонную черту общая и нижняя облачность в баллах и высота нижней границы облаков в метрах; квадратными скобками обозначены формы облаков: Ci - перистые, Cs - перисто-слоистые, Cc - перисто-кучевые, Ac - высококучевые, As - высокослоистые, Sc - слоисто-кучевые, Ns - слоисто-дождевые, Cu - кучевые, Cb - кучево-дождевые. Подробнее классификацию облаков см. в Атласе облаков (PDF).
T - Температура воздуха - температура, измеренная на высоте 2 м над землей.
Td - Температура точки росы - температура, при понижении до которой содержащийся в воздухе водяной пар достигнет насыщения.
f - Относительная влажность воздуха - влажноcть воздуха, измеренная на высоте 2 м над землей.
Te - Эффективная температура - температура, которую ощущает одетый по сезону человек в тени. Характеристика душности погоды. При расчете учитывается влияние влажности воздуха и скорости ветра на теплоощущения человека.
Tes - Эффективная температура на солнце - температура, которую ощущает человек, с поправкой на солнечный нагрев. Характеристика знойности погоды. Зависит от высоты солнца над горизонтом, облачности и скорости ветра. Ночью, в пасмурную погоду, а также при ветре 12 м/с и более поправка равна нулю.
P - Атмосферное давление - приведенное к уровню моря атмосферное давление.
Po - Атмосферное давление - измеренное на уровне метеостанции атмосферное давление.
Tmin - Минимальная температура - минимум температуры воздуха на высоте 2 м над землей.
Tmax - Максимальная температура - максимум температуры воздуха на высоте 2 м над землей.
R - Количество осадков - Количество выпавших осадков за период времени, мм. При наведении курсора мыши на число - период времени, за который выпало указанное количество осадков.
R24 - Количество осадков - Количество выпавших осадков за 24 часа, мм.
S - Снежный покров - Высота снежного покрова, см. При наведении курсора мыши на число - состояние снежного покрова и степень покрытия местности в баллах.